Terug naar catalogus

OPS 4682 DEB

ActiefPO
NORAD 51492·DEBRIS·🇺🇸 United States

Gelanceerd Apr 3, 1965 vanaf Vandenberg Space Force Base

Loading…

Volgende Passages (komende 24 uur)

TLE

VerouderendSource: Space-Track

Epoch: Sep 8, 2026, 03:37 UTC

1 51492U 65027GC  26251.15099904  .00000758  00000-0  24917-2 0  9999
2 51492  90.2648  19.6932 0030470  70.3262 107.9965 12.99888806774550

Volg OPS 4682 DEB in realtime met AllMySat

Download on the App Store